Date String (YYYY-MM-DD hh:mm:ss) UTC,Instrument flags,Ambient pressure (hPa),Sample flow (lpm),Bypass flow (lpm),Sample temperature (°C),Ambient temperature (°C),ASC tube jacket temperature (°C),LED temperature (°C),Box temperature (°C),Sample RH (%),Span deviation,Mass concentration (μg/m³),Mass concentration (μg/m³),Mass concentration (μg/m³)
DateTimeUTC,F1_M11,P_M11,Q1_M11,Q2_M11,T1_M11,T2_M11,T3_M11,T4_M11,T5_M11,U1_M11,ZSPAN_M11,X0_M11,X2_M11,X1_M11
2022-06-24 15:00:00,,0826.1,5.00,0.00,29.5,28.6,00.0,38.3,31.5,19.9,0000.0,0008.54,0002.84,0001.68
2022-06-24 15:01:00,,0826.0,5.01,0.00,29.6,28.6,00.0,38.3,31.5,20.5,0000.0,0008.30,0002.78,0001.69
2022-06-24 15:02:00,,0825.8,5.00,0.00,29.6,28.7,00.0,38.3,31.6,21.1,0000.0,0008.17,0002.76,0001.70
2022-06-24 15:03:00,,0825.8,5.00,0.00,29.6,28.8,00.0,38.4,31.6,21.1,0000.0,0008.08,0002.72,0001.71
2022-06-24 15:04:00,,0825.8,5.00,0.00,29.7,28.8,00.0,38.4,31.6,21.6,0000.0,0007.85,0002.65,0001.71
2022-06-24 15:05:00,,0825.9,5.00,0.00,29.7,28.5,00.0,38.4,31.6,22.7,0000.0,0008.19,0002.78,0001.75
2022-06-24 15:06:00,,0825.7,5.02,0.00,29.6,27.8,00.0,38.3,31.4,22.6,0000.0,0008.61,0002.87,0001.77
2022-06-24 15:07:00,,0826.0,4.98,0.00,29.6,27.4,00.0,38.3,31.3,23.8,0000.0,0009.02,0002.95,0001.80
2022-06-24 15:08:00,,0825.8,4.99,0.00,29.5,27.4,00.0,38.3,31.2,23.8,0000.0,0010.11,0003.06,0001.85
2022-06-24 15:09:00,,0826.1,4.99,0.00,29.5,27.5,00.0,38.3,31.2,22.1,0000.0,0010.81,0003.15,0001.88
2022-06-24 15:10:00,,0826.0,4.99,0.00,29.4,27.6,00.0,38.3,31.2,22.7,0000.0,0011.31,0003.20,0001.90
2022-06-24 15:11:00,,0825.8,5.00,0.00,29.4,27.7,00.0,38.3,31.3,21.4,0000.0,0011.60,0003.20,0001.91
2022-06-24 15:12:00,,0825.8,5.00,0.00,29.4,27.9,00.0,38.3,31.3,22.1,0000.0,0012.28,0003.24,0001.95
2022-06-24 15:13:00,,0825.9,5.00,0.00,29.5,28.0,00.0,38.3,31.3,22.9,0000.0,0012.71,0003.27,0001.97
2022-06-24 15:14:00,,0825.8,4.99,0.00,29.5,28.1,00.0,38.3,31.4,24.1,0000.0,0012.72,0003.31,0002.00
2022-06-24 15:15:00,,0825.8,5.01,0.00,29.5,28.3,00.0,38.3,31.4,23.1,0000.0,0012.81,0003.34,0002.03
2022-06-24 15:16:00,,0825.8,5.00,0.00,29.5,28.4,00.0,38.3,31.4,23.0,0000.0,0012.74,0003.37,0002.04
2022-06-24 15:17:00,,0825.8,5.00,0.00,29.5,28.5,00.0,38.3,31.5,23.4,0000.0,0012.95,0003.41,0002.06
2022-06-24 15:18:00,,0825.9,5.00,0.00,29.6,28.6,00.0,38.3,31.5,22.5,0000.0,0012.98,0003.41,0002.06
2022-06-24 15:19:00,,0825.8,5.00,0.00,29.6,28.6,00.0,38.3,31.5,23.0,0000.0,0012.51,0003.42,0002.07
2022-06-24 15:20:00,,0825.8,5.01,0.00,29.6,28.7,00.0,38.3,31.6,21.9,0000.0,0011.90,0003.40,0002.08
2022-06-24 15:21:00,,0825.8,5.00,0.00,29.6,28.7,00.0,38.4,31.6,21.1,0000.0,0011.98,0003.45,0002.12
2022-06-24 15:22:00,,0825.7,5.00,0.00,29.6,28.2,00.0,38.3,31.5,21.0,0000.0,0011.81,0003.48,0002.14
2022-06-24 15:23:00,,0825.8,4.99,0.00,29.6,27.5,00.0,38.3,31.3,20.8,0000.0,0011.72,0003.49,0002.12
2022-06-24 15:24:00,,0825.8,5.00,0.00,29.5,27.4,00.0,38.2,31.2,20.5,0000.0,0011.74,0003.49,0002.10
2022-06-24 15:25:00,,0825.8,5.00,0.00,29.5,27.5,00.0,38.2,31.2,20.0,0000.0,0012.22,0003.45,0002.06
2022-06-24 15:26:00,,0825.7,5.00,0.00,29.4,27.6,00.0,38.2,31.2,20.1,0000.0,0011.65,0003.43,0002.03
2022-06-24 15:27:00,,0825.8,5.00,0.00,29.4,27.7,00.0,38.2,31.2,20.2,0000.0,0011.79,0003.41,0002.01
2022-06-24 15:28:00,,0825.9,5.00,0.00,29.4,27.9,00.0,38.2,31.3,20.3,0000.0,0011.17,0003.31,0001.98
2022-06-24 15:29:00,,0825.9,5.00,0.00,29.4,28.0,00.0,38.2,31.3,20.4,0000.0,0010.57,0003.27,0001.95
2022-06-24 15:30:00,,0825.8,5.00,0.00,29.5,28.1,00.0,38.2,31.4,20.2,0000.0,0010.05,0003.19,0001.91
2022-06-24 15:31:00,,0825.9,5.01,0.00,29.5,28.3,00.0,38.3,31.4,20.4,0000.0,0010.04,0003.14,0001.87
2022-06-24 15:32:00,,0826.2,5.00,0.00,29.5,28.4,00.0,38.3,31.4,20.7,0000.0,0009.83,0003.05,0001.84
2022-06-24 15:33:00,,0825.9,4.99,0.00,29.5,28.5,00.0,38.3,31.5,21.3,0000.0,0010.02,0002.97,0001.81
2022-06-24 15:34:00,,0826.0,5.00,0.00,29.5,28.6,00.0,38.3,31.5,20.6,0000.0,0009.87,0003.01,0001.81
2022-06-24 15:35:00,,0826.1,5.00,0.00,29.6,28.6,00.0,38.3,31.5,20.7,0000.0,0009.74,0002.98,0001.82
2022-06-24 15:36:00,,0826.1,5.00,0.00,29.6,28.3,00.0,38.3,31.5,21.3,0000.0,0010.04,0003.01,0001.83
2022-06-24 15:37:00,,0826.0,4.99,0.00,29.5,27.6,00.0,38.2,31.3,21.2,0000.0,0010.28,0003.08,0001.85
2022-06-24 15:38:00,,0826.0,5.00,0.00,29.5,27.4,00.0,38.2,31.2,21.2,0000.0,0010.06,0003.09,0001.85
2022-06-24 15:39:00,,0825.8,4.99,0.00,29.4,27.4,00.0,38.2,31.2,22.3,0000.0,0010.64,0003.14,0001.86
2022-06-24 15:40:00,,0826.1,5.00,0.00,29.4,27.5,00.0,38.2,31.2,22.3,0000.0,0010.81,0003.19,0001.88
2022-06-24 15:41:00,,0825.9,5.01,0.00,29.4,27.6,00.0,38.2,31.2,22.7,0000.0,0010.36,0003.27,0001.92
2022-06-24 15:42:00,,0826.0,5.00,0.00,29.4,27.8,00.0,38.2,31.2,22.4,0000.0,0010.89,0003.37,0001.97
2022-06-24 15:43:00,,0825.8,5.00,0.00,29.4,27.9,00.0,38.2,31.2,22.4,0000.0,0011.35,0003.42,0002.00
2022-06-24 15:44:00,,0825.9,5.00,0.00,29.4,28.1,00.0,38.2,31.3,22.0,0000.0,0012.87,0003.52,0002.04
2022-06-24 15:45:00,,0825.8,5.01,0.00,29.4,28.2,00.0,38.2,31.3,21.5,0000.0,0013.43,0003.59,0002.07
2022-06-24 15:46:00,,0825.8,5.00,0.00,29.4,28.3,00.0,38.2,31.4,21.6,0000.0,0013.35,0003.67,0002.09
2022-06-24 15:47:00,,0825.7,5.00,0.00,29.5,28.4,00.0,38.2,31.4,21.8,0000.0,0012.92,0003.76,0002.13
2022-06-24 15:48:00,,0825.7,5.00,0.00,29.5,28.5,00.0,38.2,31.5,21.4,0000.0,0012.97,0003.82,0002.17
2022-06-24 15:49:00,,0825.7,5.00,0.00,29.5,28.6,00.0,38.3,31.5,21.2,0000.0,0013.30,0003.84,0002.19
2022-06-24 15:50:00,,0825.7,5.00,0.00,29.6,28.6,00.0,38.3,31.5,21.2,0000.0,0013.49,0003.90,0002.21
2022-06-24 15:51:00,,0825.6,5.00,0.00,29.5,28.0,00.0,38.2,31.4,21.4,0000.0,0014.05,0003.95,0002.23
2022-06-24 15:52:00,,0825.6,5.00,0.00,29.5,27.5,00.0,38.2,31.3,21.6,0000.0,0014.02,0003.95,0002.24
2022-06-24 15:53:00,,0825.6,5.00,0.00,29.4,27.4,00.0,38.2,31.2,20.9,0000.0,0014.09,0003.91,0002.21
2022-06-24 15:54:00,,0825.6,5.00,0.00,29.4,27.5,00.0,38.2,31.2,20.9,0000.0,0013.96,0003.93,0002.23
2022-06-24 15:55:00,,0825.6,5.00,0.00,29.4,27.6,00.0,38.2,31.2,21.3,0000.0,0012.22,0003.89,0002.23
2022-06-24 15:56:00,,0825.6,5.00,0.00,29.4,27.8,00.0,38.2,31.2,21.1,0000.0,0011.87,0003.87,0002.23
2022-06-24 15:57:00,,0825.6,5.00,0.00,29.4,27.9,00.0,38.2,31.3,20.8,0000.0,0012.15,0003.85,0002.24
2022-06-24 15:58:00,,0825.6,5.00,0.00,29.4,28.1,00.0,38.2,31.3,21.2,0000.0,0012.08,0003.78,0002.22
2022-06-24 15:59:00,,0825.6,4.98,0.00,29.4,28.2,00.0,38.2,31.3,21.5,0000.0,0011.55,0003.73,0002.21
